Home > Weather > Ashdod > Past weeks

Flag for Israel Past Weather in Ashdod, Israel — Yesterday and Last 2 Weeks

Now
79 °F

Passing clouds.


Feels Like: 82 °F
Forecast: 80 / 87 °F
Wind: 7 mph from South

Location: Ben Gurion International Airport

Current Time: Aug 25, 2016 at 5:57:49 AM

Latest Report: Aug 25, 2016 at 5:20 AM


Visibility: N/A

Pressure: 29.77 "Hg

Humidity: 79%

Dew Point: 72 °F

Location of AshdodLocation

Past Weather in Ashdod — Graph

°F

Ashdod Temperature Yesterday

Maximum temperature yesterday: 90 °F (at 11:20 AM)
Minimum temperature yesterday: 77 °F (at 6:20 AM)
Average temperature yesterday: 83 °F

High & Low Weather Summary for the Past Weeks

 TemperatureHumidityPressure
High91 °F (Aug 14, 12:50 PM)84% (Aug 10, 4:20 AM)29.86 "Hg (Aug 10, 4:20 AM)
Low75 °F (Aug 13, 4:50 AM)46% (Aug 11, 1:20 PM)29.71 "Hg (Aug 17, 3:50 PM)
Average83 °F66%29.79 "Hg
* Reported Aug 10 4:20 AM — Aug 25 4:20 AM, Ashdod, Weather by CustomWeather, © 2016

Note: Actual official high and low records may vary slightly from our data, if they occured in-between our weather recording intervals... More about our weather records

Advertising

Ashdod Weather History for the Previous 24 Hours

Scroll right to see more
 ConditionsComfort  
Time TempWeatherWind HumidityBarometerVisibility
4:20 AM
Thu, Aug 25
79 °FPassing clouds.7 mph79%29.77 "HgN/A
3:50 AM79 °FPassing clouds.7 mph79%29.77 "HgN/A
3:20 AM79 °FPassing clouds.5 mph79%29.74 "HgN/A
2:50 AM79 °FPassing clouds.5 mph79%29.74 "HgN/A
2:20 AM79 °FPassing clouds.3 mph79%29.74 "HgN/A
1:50 AM81 °FPassing clouds.3 mph74%29.74 "HgN/A
1:20 AM81 °FPassing clouds.3 mph74%29.77 "HgN/A
12:50 AM81 °FPassing clouds.5 mph74%29.77 "HgN/A
12:20 AM81 °FPassing clouds.3 mph74%29.77 "HgN/A
11:50 PM
Wed, Aug 24
81 °FPassing clouds.3 mph74%29.77 "HgN/A
11:20 PM81 °FPassing clouds.3 mph74%29.77 "HgN/A
10:50 PM82 °FPassing clouds.3 mph70%29.77 "HgN/A
10:20 PM82 °FPassing clouds.3 mph70%29.77 "HgN/A
9:50 PM82 °FPassing clouds.5 mph70%29.77 "HgN/A
9:20 PM82 °FPassing clouds.7 mph70%29.77 "HgN/A
8:50 PM82 °FPassing clouds.8 mph70%29.77 "HgN/A
8:20 PM82 °FPassing clouds.8 mph70%29.77 "HgN/A
7:50 PM82 °FPassing clouds.10 mph70%29.74 "HgN/A
7:20 PM84 °FPassing clouds.9 mph66%29.74 "HgN/A
6:50 PM84 °FPassing clouds.9 mph66%29.74 "HgN/A
6:20 PM86 °FPassing clouds.9 mph62%29.74 "HgN/A
5:50 PM86 °FScattered clouds.10 mph62%29.74 "HgN/A
5:20 PM86 °FScattered clouds.10 mph62%29.74 "HgN/A
4:50 PM88 °FPassing clouds.13 mph59%29.74 "HgN/A
4:20 PM88 °FPassing clouds.10 mph59%29.74 "HgN/A
3:50 PM88 °FPassing clouds.13 mph55%29.74 "HgN/A
3:20 PM88 °FPassing clouds.9 mph55%29.74 "HgN/A
2:50 PM88 °FPassing clouds.12 mph59%29.74 "HgN/A
2:20 PM88 °FPassing clouds.13 mph55%29.74 "HgN/A
1:50 PM88 °FPassing clouds.9 mph55%29.74 "HgN/A
1:20 PM88 °FScattered clouds.12 mph55%29.77 "HgN/A
12:50 PM90 °FScattered clouds.10 mph52%29.77 "HgN/A
12:20 PM90 °FScattered clouds.9 mph55%29.77 "HgN/A
11:50 AM88 °FScattered clouds.13 mph59%29.77 "HgN/A
11:20 AM90 °FScattered clouds.7 mph52%29.77 "HgN/A
10:50 AM88 °FPartly sunny.5 mph55%29.77 "HgN/A
10:20 AM84 °FPartly sunny.7 mph62%29.77 "HgN/A
9:50 AM84 °FPartly sunny.8 mph62%29.77 "HgN/A
9:20 AM86 °FScattered clouds.2 mph59%29.77 "HgN/A
8:50 AM84 °FScattered clouds.2 mph62%29.77 "HgN/A
8:20 AM82 °FPassing clouds.2 mph70%29.77 "HgN/A
7:50 AM81 °FPassing clouds.3 mph74%29.80 "HgN/A
7:20 AM79 °FPassing clouds.3 mph74%29.80 "HgN/A
6:50 AM77 °FPassing clouds.6 mph79%29.80 "HgN/A
6:20 AM77 °FPassing clouds.6 mph79%29.80 "HgN/A
5:50 AM79 °FPassing clouds.6 mph74%29.77 "HgN/A
5:20 AM79 °FPassing clouds.5 mph74%29.77 "HgN/A
Weather by CustomWeather, © 2016

See weather overviewHow to use our weather pages